Wetterdaten: aktuell Donnerstag, 22.10.2020 23:00
Datum Zeit Temp. Feuchte Luftdruck Nieders. Wind Richtung Richtung Sonnenschein Solar Taupunkt Windchill Windben
22.10.2020 23:00 16,8 C 82 % 1014,0 hPa 0,0 l/m 7,4 km/h (2 Bft) S-SO 165 0 min 0 W/m 13,7 C 16,3 C 16,1 km/h (3 Bft)
22.10.2020 22:55 16,8 C 82 % 1014,0 hPa 0,0 l/m 7,3 km/h (2 Bft) S 187 0 min 0 W/m 13,7 C 16,3 C 12,9 km/h (3 Bft)
22.10.2020 22:50 16,8 C 82 % 1014,0 hPa 0,0 l/m 8,5 km/h (2 Bft) S-SO 159 0 min 0 W/m 13,7 C 15,8 C 17,7 km/h (3 Bft)
22.10.2020 22:45 16,8 C 81 % 1013,9 hPa 0,0 l/m 7,5 km/h (2 Bft) SO 133 0 min 0 W/m 13,5 C 16,2 C 14,5 km/h (3 Bft)
22.10.2020 22:40 16,8 C 81 % 1013,9 hPa 0,0 l/m 6,7 km/h (2 Bft) O-SO 118 0 min 0 W/m 13,5 C 16,7 C 12,9 km/h (3 Bft)
22.10.2020 22:35 16,9 C 81 % 1013,9 hPa 0,0 l/m 1,1 km/h (1 Bft) S-SO 148 0 min 0 W/m 13,6 C 16,9 C 6,4 km/h (2 Bft)
22.10.2020 22:30 17,0 C 80 % 1013,8 hPa 0,0 l/m 3,3 km/h (1 Bft) S-SO 148 0 min 0 W/m 13,5 C 17,0 C 8,0 km/h (2 Bft)
22.10.2020 22:25 17,1 C 80 % 1013,8 hPa 0,0 l/m 2,4 km/h (1 Bft) S-SO 148 0 min 0 W/m 13,6 C 17,1 C 12,9 km/h (3 Bft)
22.10.2020 22:20 17,2 C 79 % 1013,8 hPa 0,0 l/m 6,4 km/h (2 Bft) O-SO 121 0 min 0 W/m 13,5 C 17,2 C 16,1 km/h (3 Bft)
22.10.2020 22:15 17,2 C 79 % 1013,8 hPa 0,0 l/m 7,1 km/h (2 Bft) S-SO 167 0 min 0 W/m 13,5 C 16,9 C 12,9 km/h (3 Bft)
22.10.2020 22:10 17,2 C 78 % 1013,7 hPa 0,0 l/m 9,6 km/h (2 Bft) SO 124 0 min 0 W/m 13,3 C 15,7 C 16,1 km/h (3 Bft)
22.10.2020 22:05 17,2 C 78 % 1013,7 hPa 0,0 l/m 4,5 km/h (1 Bft) O-SO 123 0 min 0 W/m 13,3 C 17,2 C 12,9 km/h (3 Bft)
22.10.2020 22:00 17,3 C 77 % 1013,7 hPa 0,0 l/m 3,1 km/h (1 Bft) SO 125 0 min 0 W/m 13,2 C 17,3 C 11,3 km/h (2 Bft)
22.10.2020 21:55 17,3 C 77 % 1013,6 hPa 0,0 l/m 3,7 km/h (1 Bft) S-SO 155 0 min 0 W/m 13,2 C 17,3 C 12,9 km/h (3 Bft)
22.10.2020 21:50 17,4 C 76 % 1013,5 hPa 0,0 l/m 6,5 km/h (2 Bft) SO 131 0 min 0 W/m 13,1 C 17,4 C 14,5 km/h (3 Bft)
22.10.2020 21:45 17,6 C 75 % 1013,5 hPa 0,0 l/m 1,8 km/h (1 Bft) S 176 0 min 0 W/m 13,1 C 17,6 C 9,7 km/h (2 Bft)
22.10.2020 21:40 17,6 C 75 % 1013,3 hPa 0,0 l/m 4,0 km/h (1 Bft) S-SO 149 0 min 0 W/m 13,1 C 17,6 C 9,7 km/h (2 Bft)
22.10.2020 21:35 17,7 C 74 % 1013,3 hPa 0,0 l/m 3,5 km/h (1 Bft) SO 144 0 min 0 W/m 13,0 C 17,7 C 8,0 km/h (2 Bft)
22.10.2020 21:30 17,7 C 74 % 1013,2 hPa 0,0 l/m 3,2 km/h (1 Bft) SO 140 0 min 0 W/m 13,0 C 17,7 C 12,9 km/h (3 Bft)
22.10.2020 21:25 17,8 C 73 % 1013,1 hPa 0,0 l/m 5,5 km/h (2 Bft) S-SO 155 0 min 0 W/m 12,9 C 17,8 C 12,9 km/h (3 Bft)
22.10.2020 21:20 17,8 C 73 % 1013,2 hPa 0,0 l/m 7,7 km/h (2 Bft) S 173 0 min 0 W/m 12,9 C 17,2 C 14,5 km/h (3 Bft)
22.10.2020 21:15 17,8 C 73 % 1013,3 hPa 0,0 l/m 6,5 km/h (2 Bft) S-SO 157 0 min 0 W/m 12,9 C 17,8 C 17,7 km/h (3 Bft)
22.10.2020 21:10 17,8 C 73 % 1013,2 hPa 0,0 l/m 8,0 km/h (2 Bft) S-SO 167 0 min 0 W/m 12,9 C 17,0 C 19,3 km/h (3 Bft)
22.10.2020 21:05 17,8 C 73 % 1013,1 hPa 0,0 l/m 6,0 km/h (2 Bft) SW 232 0 min 0 W/m 12,9 C 17,8 C 14,5 km/h (3 Bft)
22.10.2020 21:00 17,8 C 72 % 1013,1 hPa 0,0 l/m 3,4 km/h (1 Bft) S-SO 163 0 min 0 W/m 12,7 C 17,8 C 11,3 km/h (2 Bft)
22.10.2020 20:55 17,8 C 72 % 1013,1 hPa 0,0 l/m 6,0 km/h (2 Bft) S-SW 206 0 min 0 W/m 12,7 C 17,8 C 12,9 km/h (3 Bft)
22.10.2020 20:50 17,9 C 72 % 1013,0 hPa 0,0 l/m 4,4 km/h (1 Bft) S-SO 149 0 min 0 W/m 12,8 C 17,9 C 11,3 km/h (2 Bft)
22.10.2020 20:45 17,9 C 71 % 1013,0 hPa 0,0 l/m 2,9 km/h (1 Bft) S 187 0 min 0 W/m 12,6 C 17,9 C 8,0 km/h (2 Bft)
22.10.2020 20:40 18,0 C 71 % 1013,0 hPa 0,0 l/m 5,6 km/h (2 Bft) S-SW 206 0 min 0 W/m 12,7 C 18,0 C 16,1 km/h (3 Bft)
22.10.2020 20:35 18,1 C 70 % 1013,0 hPa 0,0 l/m 6,5 km/h (2 Bft) S 172 0 min 0 W/m 12,5 C 18,1 C 16,1 km/h (3 Bft)
22.10.2020 20:30 18,2 C 70 % 1013,1 hPa 0,0 l/m 7,3 km/h (2 Bft) S-SO 166 0 min 0 W/m 12,6 C 17,8 C 16,1 km/h (3 Bft)
22.10.2020 20:25 18,2 C 69 % 1013,1 hPa 0,0 l/m 7,3 km/h (2 Bft) SO 138 0 min 0 W/m 12,4 C 17,8 C 19,3 km/h (3 Bft)
22.10.2020 20:20 18,3 C 69 % 1013,1 hPa 0,0 l/m 5,6 km/h (2 Bft) S 183 0 min 0 W/m 12,5 C 18,3 C 16,1 km/h (3 Bft)
22.10.2020 20:15 18,3 C 69 % 1013,1 hPa 0,0 l/m 5,8 km/h (2 Bft) S 183 0 min 0 W/m 12,5 C 18,3 C 14,5 km/h (3 Bft)
22.10.2020 20:10 18,4 C 69 % 1013,1 hPa 0,0 l/m 6,2 km/h (2 Bft) S 172 0 min 0 W/m 12,6 C 18,4 C 12,9 km/h (3 Bft)
22.10.2020 20:05 18,5 C 68 % 1013,1 hPa 0,0 l/m 3,9 km/h (1 Bft) S-SW 213 0 min 0 W/m 12,5 C 18,5 C 12,9 km/h (3 Bft)
22.10.2020 20:00 18,6 C 68 % 1013,0 hPa 0,0 l/m 9,8 km/h (2 Bft) S 187 0 min 0 W/m 12,6 C 17,2 C 24,1 km/h (4 Bft)
22.10.2020 19:55 18,6 C 67 % 1013,0 hPa 0,0 l/m 8,7 km/h (2 Bft) SO 139 0 min 0 W/m 12,3 C 17,6 C 24,1 km/h (4 Bft)
22.10.2020 19:50 18,6 C 67 % 1013,0 hPa 0,0 l/m 8,8 km/h (2 Bft) S-SO 151 0 min 0 W/m 12,3 C 17,6 C 27,4 km/h (5 Bft)
22.10.2020 19:45 18,6 C 67 % 1013,0 hPa 0,0 l/m 6,2 km/h (2 Bft) S-SO 155 0 min 0 W/m 12,3 C 18,6 C 17,7 km/h (3 Bft)
22.10.2020 19:40 18,7 C 67 % 1013,0 hPa 0,0 l/m 7,4 km/h (2 Bft) S 175 0 min 0 W/m 12,4 C 18,2 C 20,9 km/h (4 Bft)
22.10.2020 19:35 18,7 C 67 % 1013,1 hPa 0,0 l/m 7,9 km/h (2 Bft) S 169 0 min 0 W/m 12,4 C 18,0 C 22,5 km/h (4 Bft)
22.10.2020 19:30 18,7 C 67 % 1013,1 hPa 0,0 l/m 9,2 km/h (2 Bft) SO 138 0 min 0 W/m 12,4 C 17,5 C 17,7 km/h (3 Bft)
22.10.2020 19:25 18,7 C 67 % 1013,0 hPa 0,0 l/m 9,1 km/h (2 Bft) S-SW 211 0 min 0 W/m 12,4 C 17,5 C 19,3 km/h (3 Bft)
22.10.2020 19:20 18,6 C 67 % 1013,0 hPa 0,0 l/m 9,3 km/h (2 Bft) S-SO 155 0 min 0 W/m 12,3 C 17,4 C 17,7 km/h (3 Bft)
22.10.2020 19:15 18,5 C 68 % 1013,0 hPa 0,0 l/m 6,8 km/h (2 Bft) S-SO 150 0 min 0 W/m 12,5 C 18,3 C 22,5 km/h (4 Bft)
22.10.2020 19:10 18,4 C 68 % 1012,9 hPa 0,0 l/m 5,8 km/h (2 Bft) S-SO 148 0 min 0 W/m 12,4 C 18,4 C 16,1 km/h (3 Bft)
22.10.2020 19:05 18,4 C 68 % 1012,9 hPa 0,0 l/m 5,3 km/h (1 Bft) S 183 0 min 0 W/m 12,4 C 18,4 C 11,3 km/h (2 Bft)
22.10.2020 19:00 18,5 C 68 % 1013,0 hPa 0,0 l/m 3,9 km/h (1 Bft) S-SO 166 0 min 0 W/m 12,5 C 18,5 C 11,3 km/h (2 Bft)
22.10.2020 18:55 18,4 C 68 % 1012,9 hPa 0,0 l/m 4,6 km/h (1 Bft) S 170 0 min 0 W/m 12,4 C 18,4 C 12,9 km/h (3 Bft)
22.10.2020 18:50 18,4 C 68 % 1012,8 hPa 0,0 l/m 6,4 km/h (2 Bft) SO 138 0 min 0 W/m 12,4 C 18,4 C 16,1 km/h (3 Bft)
22.10.2020 18:45 18,4 C 69 % 1012,9 hPa 0,0 l/m 2,8 km/h (1 Bft) S-SO 148 0 min 0 W/m 12,6 C 18,4 C 14,5 km/h (3 Bft)
22.10.2020 18:40 18,4 C 68 % 1012,9 hPa 0,0 l/m 5,3 km/h (1 Bft) S-SO 159 0 min 0 W/m 12,4 C 18,4 C 11,3 km/h (2 Bft)
22.10.2020 18:35 18,3 C 69 % 1012,9 hPa 0,0 l/m 6,4 km/h (2 Bft) S-SO 164 0 min 0 W/m 12,5 C 18,3 C 12,9 km/h (3 Bft)
22.10.2020 18:30 18,2 C 69 % 1012,8 hPa 0,0 l/m 3,6 km/h (1 Bft) S-SO 165 0 min 0 W/m 12,4 C 18,2 C 12,9 km/h (3 Bft)
22.10.2020 18:25 18,2 C 70 % 1012,8 hPa 0,0 l/m 0,8 km/h (0 Bft) S-SO 154 0 min 0 W/m 12,6 C 18,2 C 11,3 km/h (2 Bft)
22.10.2020 18:20 18,2 C 70 % 1012,7 hPa 0,0 l/m 3,3 km/h (1 Bft) S 182 0 min 0 W/m 12,6 C 18,2 C 6,4 km/h (2 Bft)
22.10.2020 18:15 18,2 C 69 % 1012,7 hPa 0,0 l/m 5,3 km/h (1 Bft) S 186 0 min 0 W/m 12,4 C 18,2 C 12,9 km/h (3 Bft)
22.10.2020 18:10 18,3 C 69 % 1012,6 hPa 0,0 l/m 0,2 km/h (0 Bft) SO 138 0 min 0 W/m 12,5 C 18,3 C 4,8 km/h (1 Bft)
22.10.2020 18:05 18,3 C 69 % 1012,6 hPa 0,0 l/m 0,0 km/h (0 Bft) SO 140 0 min 5 W/m 12,5 C 18,3 C 0,0 km/h (0 Bft)
22.10.2020 18:00 18,4 C 69 % 1012,6 hPa 0,0 l/m 0,9 km/h (0 Bft) SO 140 0 min 9 W/m 12,6 C 18,4 C 8,0 km/h (2 Bft)
22.10.2020 17:55 18,4 C 69 % 1012,7 hPa 0,0 l/m 1,4 km/h (1 Bft) SO 142 0 min 12 W/m 12,6 C 18,4 C 9,7 km/h (2 Bft)
22.10.2020 17:50 18,5 C 69 % 1012,8 hPa 0,0 l/m 0,1 km/h (0 Bft) S-SO 149 0 min 21 W/m 12,7 C 18,5 C 4,8 km/h (1 Bft)
22.10.2020 17:45 18,6 C 69 % 1012,8 hPa 0,0 l/m 1,4 km/h (1 Bft) S-SO 149 0 min 19 W/m 12,8 C 18,6 C 8,0 km/h (2 Bft)
22.10.2020 17:40 18,6 C 69 % 1012,6 hPa 0,0 l/m 2,4 km/h (1 Bft) S-SO 153 0 min 21 W/m 12,8 C 18,6 C 9,7 km/h (2 Bft)
22.10.2020 17:35 18,8 C 68 % 1012,6 hPa 0,0 l/m 2,2 km/h (1 Bft) S-SO 148 0 min 23 W/m 12,8 C 18,8 C 9,7 km/h (2 Bft)
22.10.2020 17:30 18,8 C 67 % 1012,7 hPa 0,0 l/m 3,6 km/h (1 Bft) S-SO 159 0 min 26 W/m 12,5 C 18,8 C 11,3 km/h (2 Bft)
22.10.2020 17:25 18,9 C 68 % 1012,9 hPa 0,0 l/m 1,3 km/h (1 Bft) SO 140 0 min 32 W/m 12,9 C 18,9 C 14,5 km/h (3 Bft)
22.10.2020 17:20 19,1 C 67 % 1012,9 hPa 0,0 l/m 1,8 km/h (1 Bft) SO 125 0 min 30 W/m 12,8 C 19,1 C 8,0 km/h (2 Bft)
22.10.2020 17:15 19,3 C 67 % 1012,9 hPa 0,0 l/m 2,5 km/h (1 Bft) O-SO 123 0 min 40 W/m 13,0 C 19,3 C 12,9 km/h (3 Bft)
22.10.2020 17:10 19,4 C 66 % 1012,9 hPa 0,0 l/m 5,7 km/h (2 Bft) SO 125 0 min 47 W/m 12,9 C 19,4 C 14,5 km/h (3 Bft)
22.10.2020 17:05 19,4 C 65 % 1012,8 hPa 0,0 l/m 5,6 km/h (2 Bft) S-SO 164 0 min 69 W/m 12,6 C 19,4 C 12,9 km/h (3 Bft)
22.10.2020 17:00 19,6 C 65 % 1012,8 hPa 0,0 l/m 2,1 km/h (1 Bft) S-SO 159 0 min 44 W/m 12,8 C 19,6 C 11,3 km/h (2 Bft)
22.10.2020 16:55 19,6 C 65 % 1012,8 hPa 0,0 l/m 4,8 km/h (1 Bft) S-SO 156 0 min 70 W/m 12,8 C 19,6 C 12,9 km/h (3 Bft)
22.10.2020 16:50 19,8 C 65 % 1012,8 hPa 0,0 l/m 2,6 km/h (1 Bft) S 190 0 min 118 W/m 13,0 C 19,8 C 11,3 km/h (2 Bft)
22.10.2020 16:45 19,9 C 63 % 1012,9 hPa 0,0 l/m 5,0 km/h (1 Bft) S-SO 153 0 min 72 W/m 12,6 C 19,9 C 12,9 km/h (3 Bft)
22.10.2020 16:40 20,2 C 63 % 1012,9 hPa 0,0 l/m 4,5 km/h (1 Bft) S-SO 168 0 min 60 W/m 12,9 C 20,2 C 16,1 km/h (3 Bft)
22.10.2020 16:35 20,4 C 61 % 1012,9 hPa 0,0 l/m 5,6 km/h (2 Bft) S 180 0 min 42 W/m 12,6 C 20,4 C 14,5 km/h (3 Bft)
22.10.2020 16:30 20,6 C 63 % 1012,9 hPa 0,0 l/m 1,7 km/h (1 Bft) S-SO 159 5 min 171 W/m 13,3 C 20,6 C 9,7 km/h (2 Bft)
22.10.2020 16:25 20,6 C 63 % 1012,9 hPa 0,0 l/m 3,8 km/h (1 Bft) S-SO 156 5 min 190 W/m 13,3 C 20,6 C 14,5 km/h (3 Bft)
22.10.2020 16:20 20,5 C 63 % 1012,8 hPa 0,0 l/m 4,1 km/h (1 Bft) SW 214 5 min 200 W/m 13,2 C 20,5 C 12,9 km/h (3 Bft)
22.10.2020 16:15 20,3 C 64 % 1012,8 hPa 0,0 l/m 3,6 km/h (1 Bft) S-SW 207 5 min 220 W/m 13,3 C 20,3 C 11,3 km/h (2 Bft)
22.10.2020 16:10 19,9 C 66 % 1012,9 hPa 0,0 l/m 0,8 km/h (0 Bft) SW 230 5 min 260 W/m 13,4 C 19,9 C 4,8 km/h (1 Bft)
22.10.2020 16:05 19,8 C 64 % 1012,8 hPa 0,0 l/m 3,2 km/h (1 Bft) SW 230 0 min 105 W/m 12,8 C 19,8 C 14,5 km/h (3 Bft)
22.10.2020 16:00 20,0 C 64 % 1012,9 hPa 0,0 l/m 2,6 km/h (1 Bft) S-SO 167 0 min 90 W/m 13,0 C 20,0 C 12,9 km/h (3 Bft)
22.10.2020 15:55 20,3 C 63 % 1012,8 hPa 0,0 l/m 4,9 km/h (1 Bft) S-SO 165 0 min 63 W/m 13,0 C 20,3 C 12,9 km/h (3 Bft)
22.10.2020 15:50 20,6 C 62 % 1012,8 hPa 0,0 l/m 6,6 km/h (2 Bft) S-SO 150 0 min 70 W/m 13,1 C 20,5 C 14,5 km/h (3 Bft)
22.10.2020 15:45 20,6 C 63 % 1012,9 hPa 0,0 l/m 4,6 km/h (1 Bft) SW 221 5 min 250 W/m 13,3 C 20,6 C 11,3 km/h (2 Bft)
22.10.2020 15:40 20,2 C 65 % 1012,9 hPa 0,0 l/m 0,4 km/h (0 Bft) S-SW 210 5 min 295 W/m 13,4 C 20,2 C 6,4 km/h (2 Bft)
22.10.2020 15:35 19,9 C 66 % 1012,8 hPa 0,0 l/m 2,5 km/h (1 Bft) SW 230 0 min 81 W/m 13,4 C 19,9 C 11,3 km/h (2 Bft)
22.10.2020 15:30 19,5 C 68 % 1012,9 hPa 0,0 l/m 0,4 km/h (0 Bft) SO 139 5 min 304 W/m 13,4 C 19,5 C 4,8 km/h (1 Bft)
22.10.2020 15:25 19,3 C 69 % 1013,0 hPa 0,0 l/m 5,4 km/h (2 Bft) SO 138 5 min 332 W/m 13,5 C 19,3 C 11,3 km/h (2 Bft)
22.10.2020 15:20 19,3 C 69 % 1013,0 hPa 0,0 l/m 3,7 km/h (1 Bft) S-SO 153 0 min 105 W/m 13,5 C 19,3 C 12,9 km/h (3 Bft)
22.10.2020 15:15 19,4 C 67 % 1013,2 hPa 0,0 l/m 1,7 km/h (1 Bft) SO 146 0 min 105 W/m 13,1 C 19,4 C 6,4 km/h (2 Bft)
22.10.2020 15:10 19,6 C 68 % 1013,3 hPa 0,0 l/m 3,6 km/h (1 Bft) SO 146 0 min 113 W/m 13,5 C 19,6 C 9,7 km/h (2 Bft)
22.10.2020 15:05 19,5 C 68 % 1013,4 hPa 0,0 l/m 6,1 km/h (2 Bft) O-SO 119 5 min 236 W/m 13,4 C 19,5 C 17,7 km/h (3 Bft)
22.10.2020 15:00 19,4 C 68 % 1013,3 hPa 0,0 l/m 9,6 km/h (2 Bft) O-SO 120 5 min 352 W/m 13,3 C 18,1 C 16,1 km/h (3 Bft)
22.10.2020 14:55 19,3 C 69 % 1013,5 hPa 0,0 l/m 8,4 km/h (2 Bft) O-SO 107 5 min 352 W/m 13,5 C 18,5 C 12,9 km/h (3 Bft)
22.10.2020 14:50 19,3 C 70 % 1013,5 hPa 0,0 l/m 9,1 km/h (2 Bft) O-SO 109 5 min 357 W/m 13,7 C 18,2 C 14,5 km/h (3 Bft)
22.10.2020 14:45 19,1 C 69 % 1013,6 hPa 0,0 l/m 4,8 km/h (1 Bft) SO 134 5 min 366 W/m 13,3 C 19,1 C 16,1 km/h (3 Bft)
22.10.2020 14:40 18,9 C 68 % 1013,6 hPa 0,0 l/m 5,1 km/h (1 Bft) O-SO 113 5 min 410 W/m 12,9 C 18,9 C 12,9 km/h (3 Bft)
22.10.2020 14:35 18,9 C 71 % 1013,7 hPa 0,0 l/m 7,2 km/h (2 Bft) O-SO 115 5 min 165 W/m 13,5 C 18,5 C 12,9 km/h (3 Bft)
22.10.2020 14:30 18,8 C 70 % 1013,7 hPa 0,0 l/m 4,3 km/h (1 Bft) O-SO 121 5 min 359 W/m 13,2 C 18,8 C 12,9 km/h (3 Bft)
22.10.2020 14:25 18,6 C 70 % 1013,7 hPa 0,0 l/m 1,5 km/h (1 Bft) O-SO 117 5 min 397 W/m 13,0 C 18,6 C 11,3 km/h (2 Bft)
22.10.2020 14:20 18,6 C 69 % 1013,9 hPa 0,0 l/m 1,2 km/h (1 Bft) O-SO 117 5 min 336 W/m 12,8 C 18,6 C 9,7 km/h (2 Bft)
22.10.2020 14:15 18,8 C 68 % 1013,9 hPa 0,0 l/m 3,9 km/h (1 Bft) O-SO 115 0 min 132 W/m 12,8 C 18,8 C 12,9 km/h (3 Bft)
22.10.2020 14:10 19,2 C 67 % 1013,8 hPa 0,0 l/m 5,8 km/h (2 Bft) SO 138 5 min 174 W/m 12,9 C 19,2 C 14,5 km/h (3 Bft)
22.10.2020 14:05 19,3 C 67 % 1013,9 hPa 0,0 l/m 0,9 km/h (0 Bft) S-SO 155 5 min 390 W/m 13,0 C 19,3 C 4,8 km/h (1 Bft)
22.10.2020 14:00 19,0 C 69 % 1014,0 hPa 0,0 l/m 3,0 km/h (1 Bft) S-SO 155 5 min 424 W/m 13,2 C 19,0 C 16,1 km/h (3 Bft)
22.10.2020 13:55 18,7 C 69 % 1014,1 hPa 0,0 l/m 2,5 km/h (1 Bft) S-SW 205 5 min 425 W/m 12,9 C 18,7 C 11,3 km/h (2 Bft)
22.10.2020 13:50 18,5 C 69 % 1014,1 hPa 0,0 l/m 6,0 km/h (2 Bft) S-SO 157 5 min 318 W/m 12,7 C 18,5 C 17,7 km/h (3 Bft)
22.10.2020 13:45 18,3 C 70 % 1014,1 hPa 0,0 l/m 5,7 km/h (2 Bft) S-SO 163 5 min 292 W/m 12,7 C 18,3 C 16,1 km/h (3 Bft)
22.10.2020 13:40 18,3 C 70 % 1014,1 hPa 0,0 l/m 8,6 km/h (2 Bft) S-SO 157 5 min 218 W/m 12,7 C 17,3 C 17,7 km/h (3 Bft)
22.10.2020 13:35 18,3 C 71 % 1014,1 hPa 0,0 l/m 3,6 km/h (1 Bft) O-SO 109 5 min 185 W/m 12,9 C 18,3 C 11,3 km/h (2 Bft)
22.10.2020 13:30 18,3 C 69 % 1014,1 hPa 0,0 l/m 7,8 km/h (2 Bft) S-SW 200 5 min 185 W/m 12,5 C 17,7 C 14,5 km/h (3 Bft)
22.10.2020 13:25 18,4 C 69 % 1014,2 hPa 0,0 l/m 5,8 km/h (2 Bft) S-SO 157 5 min 169 W/m 12,6 C 18,4 C 16,1 km/h (3 Bft)
22.10.2020 13:20 18,5 C 69 % 1014,3 hPa 0,0 l/m 6,1 km/h (2 Bft) SO 127 5 min 176 W/m 12,7 C 18,5 C 16,1 km/h (3 Bft)
22.10.2020 13:15 18,6 C 68 % 1014,4 hPa 0,0 l/m 7,4 km/h (2 Bft) S-SO 149 5 min 227 W/m 12,6 C 18,1 C 19,3 km/h (3 Bft)
22.10.2020 13:10 18,6 C 70 % 1014,4 hPa 0,0 l/m 8,1 km/h (2 Bft) S 169 5 min 301 W/m 13,0 C 17,8 C 19,3 km/h (3 Bft)
22.10.2020 13:05 18,5 C 70 % 1014,5 hPa 0,0 l/m 5,1 km/h (1 Bft) S-SW 212 5 min 343 W/m 12,9 C 18,5 C 14,5 km/h (3 Bft)
22.10.2020 13:00 18,4 C 70 % 1014,5 hPa 0,0 l/m 7,5 km/h (2 Bft) SO 146 5 min 304 W/m 12,8 C 17,9 C 20,9 km/h (4 Bft)
22.10.2020 12:55 18,6 C 70 % 1014,6 hPa 0,0 l/m 7,6 km/h (2 Bft) SO 143 5 min 260 W/m 13,0 C 18,1 C 20,9 km/h (4 Bft)
22.10.2020 12:50 18,7 C 67 % 1014,7 hPa 0,0 l/m 7,8 km/h (2 Bft) S-SW 198 5 min 271 W/m 12,4 C 18,1 C 20,9 km/h (4 Bft)
22.10.2020 12:45 18,9 C 68 % 1014,6 hPa 0,0 l/m 8,1 km/h (2 Bft) S 180 5 min 417 W/m 12,9 C 18,2 C 24,1 km/h (4 Bft)
22.10.2020 12:40 18,8 C 71 % 1014,6 hPa 0,0 l/m 4,3 km/h (1 Bft) S-SO 155 5 min 434 W/m 13,4 C 18,8 C 16,1 km/h (3 Bft)
22.10.2020 12:35 18,7 C 70 % 1014,6 hPa 0,0 l/m 7,6 km/h (2 Bft) S-SO 157 5 min 448 W/m 13,1 C 18,2 C 17,7 km/h (3 Bft)
22.10.2020 12:30 18,4 C 71 % 1014,5 hPa 0,0 l/m 3,5 km/h (1 Bft) S-SW 193 5 min 434 W/m 13,0 C 18,4 C 16,1 km/h (3 Bft)
22.10.2020 12:25 18,3 C 72 % 1014,6 hPa 0,0 l/m 6,2 km/h (2 Bft) S 173 5 min 431 W/m 13,2 C 18,3 C 17,7 km/h (3 Bft)
22.10.2020 12:20 18,2 C 72 % 1014,6 hPa 0,0 l/m 5,7 km/h (2 Bft) SW 220 5 min 448 W/m 13,1 C 18,2 C 16,1 km/h (3 Bft)
22.10.2020 12:15 18,1 C 74 % 1014,7 hPa 0,0 l/m 5,8 km/h (2 Bft) S-SO 164 5 min 452 W/m 13,4 C 18,1 C 14,5 km/h (3 Bft)
22.10.2020 12:10 17,8 C 74 % 1014,7 hPa 0,0 l/m 7,5 km/h (2 Bft) SW 215 5 min 461 W/m 13,1 C 17,3 C 17,7 km/h (3 Bft)
22.10.2020 12:05 17,7 C 75 % 1014,6 hPa 0,0 l/m 5,4 km/h (2 Bft) S 178 5 min 459 W/m 13,2 C 17,7 C 17,7 km/h (3 Bft)
22.10.2020 12:00 17,7 C 73 % 1014,7 hPa 0,0 l/m 6,4 km/h (2 Bft) SO 129 5 min 243 W/m 12,8 C 17,7 C 16,1 km/h (3 Bft)
22.10.2020 11:55 17,8 C 76 % 1014,7 hPa 0,0 l/m 4,9 km/h (1 Bft) S 184 5 min 250 W/m 13,5 C 17,8 C 16,1 km/h (3 Bft)
22.10.2020 11:50 17,4 C 77 % 1014,8 hPa 0,0 l/m 1,5 km/h (1 Bft) S-SW 203 5 min 524 W/m 13,3 C 17,4 C 6,4 km/h (2 Bft)
22.10.2020 11:45 17,1 C 76 % 1014,8 hPa 0,0 l/m 2,8 km/h (1 Bft) S-SW 213 5 min 443 W/m 12,8 C 17,1 C 8,0 km/h (2 Bft)
22.10.2020 11:40 16,7 C 79 % 1014,7 hPa 0,0 l/m 4,6 km/h (1 Bft) SW 215 5 min 417 W/m 13,0 C 16,7 C 11,3 km/h (2 Bft)
22.10.2020 11:35 16,3 C 80 % 1014,7 hPa 0,0 l/m 6,1 km/h (2 Bft) S-SO 165 5 min 366 W/m 12,8 C 16,3 C 14,5 km/h (3 Bft)
22.10.2020 11:30 15,7 C 82 % 1014,6 hPa 0,0 l/m 4,4 km/h (1 Bft) S-SO 151 5 min 367 W/m 12,6 C 15,7 C 14,5 km/h (3 Bft)
22.10.2020 11:25 15,3 C 83 % 1014,6 hPa 0,0 l/m 2,8 km/h (1 Bft) S 190 5 min 156 W/m 12,4 C 15,3 C 9,7 km/h (2 Bft)
22.10.2020 11:20 14,9 C 83 % 1014,6 hPa 0,0 l/m 4,9 km/h (1 Bft) SO 146 5 min 181 W/m 12,0 C 14,9 C 9,7 km/h (2 Bft)
22.10.2020 11:15 14,9 C 84 % 1014,5 hPa 0,0 l/m 9,0 km/h (2 Bft) SO 134 0 min 137 W/m 12,2 C 13,5 C 14,5 km/h (3 Bft)
22.10.2020 11:10 14,7 C 86 % 1014,6 hPa 0,0 l/m 10,0 km/h (2 Bft) O-SO 123 5 min 221 W/m 12,4 C 12,8 C 20,9 km/h (4 Bft)
22.10.2020 11:05 14,5 C 85 % 1014,6 hPa 0,0 l/m 9,2 km/h (2 Bft) S-SO 153 5 min 264 W/m 12,0 C 13,0 C 16,1 km/h (3 Bft)
22.10.2020 11:00 14,3 C 85 % 1014,6 hPa 0,0 l/m 8,2 km/h (2 Bft) O-SO 115 0 min 142 W/m 11,8 C 13,3 C 19,3 km/h (3 Bft)
22.10.2020 10:55 14,3 C 84 % 1014,6 hPa 0,2 l/m 9,0 km/h (2 Bft) SO 141 0 min 77 W/m 11,6 C 12,8 C 14,5 km/h (3 Bft)
22.10.2020 10:50 14,4 C 83 % 1014,4 hPa 0,0 l/m 11,2 km/h (2 Bft) O-SO 119 0 min 33 W/m 11,5 C 11,9 C 19,3 km/h (3 Bft)
22.10.2020 10:45 14,6 C 82 % 1014,0 hPa 0,2 l/m 11,8 km/h (2 Bft) SO 128 0 min 26 W/m 11,6 C 11,9 C 17,7 km/h (3 Bft)
22.10.2020 10:40 14,6 C 80 % 1014,4 hPa 0,0 l/m 8,4 km/h (2 Bft) S-SO 156 0 min 32 W/m 11,2 C 13,5 C 14,5 km/h (3 Bft)
22.10.2020 10:35 14,6 C 80 % 1014,5 hPa 0,0 l/m 8,0 km/h (2 Bft) SO 142 0 min 44 W/m 11,2 C 13,7 C 16,1 km/h (3 Bft)
22.10.2020 10:30 14,5 C 80 % 1014,4 hPa 0,0 l/m 8,1 km/h (2 Bft) S 171 0 min 49 W/m 11,1 C 13,5 C 17,7 km/h (3 Bft)
22.10.2020 10:25 14,4 C 80 % 1014,5 hPa 0,0 l/m 9,4 km/h (2 Bft) S-SO 149 0 min 63 W/m 11,0 C 12,7 C 19,3 km/h (3 Bft)
22.10.2020 10:20 14,4 C 80 % 1014,5 hPa 0,0 l/m 8,3 km/h (2 Bft) S-SO 159 0 min 93 W/m 11,0 C 13,3 C 14,5 km/h (3 Bft)
22.10.2020 10:15 14,3 C 80 % 1014,4 hPa 0,0 l/m 7,1 km/h (2 Bft) SO 139 0 min 62 W/m 10,9 C 13,9 C 12,9 km/h (3 Bft)
22.10.2020 10:10 14,4 C 79 % 1014,4 hPa 0,0 l/m 8,3 km/h (2 Bft) S-SO 159 0 min 37 W/m 10,8 C 13,3 C 20,9 km/h (4 Bft)
22.10.2020 10:05 14,4 C 80 % 1014,5 hPa 0,0 l/m 8,4 km/h (2 Bft) SO 138 0 min 62 W/m 11,0 C 13,3 C 17,7 km/h (3 Bft)
22.10.2020 10:00 14,4 C 79 % 1014,4 hPa 0,0 l/m 7,4 km/h (2 Bft) S-SW 196 0 min 70 W/m 10,8 C 13,8 C 16,1 km/h (3 Bft)
22.10.2020 09:55 14,4 C 79 % 1014,5 hPa 0,0 l/m 6,2 km/h (2 Bft) S-SO 168 0 min 46 W/m 10,8 C 14,4 C 16,1 km/h (3 Bft)
22.10.2020 09:50 14,4 C 79 % 1014,5 hPa 0,0 l/m 7,6 km/h (2 Bft) S-SO 167 0 min 49 W/m 10,8 C 13,7 C 19,3 km/h (3 Bft)
22.10.2020 09:45 14,3 C 80 % 1014,3 hPa 0,0 l/m 6,5 km/h (2 Bft) S-SO 152 0 min 134 W/m 10,9 C 14,3 C 12,9 km/h (3 Bft)
22.10.2020 09:40 14,2 C 80 % 1014,2 hPa 0,0 l/m 5,2 km/h (1 Bft) S 175 0 min 84 W/m 10,8 C 14,2 C 14,5 km/h (3 Bft)
22.10.2020 09:35 14,2 C 80 % 1014,1 hPa 0,0 l/m 4,6 km/h (1 Bft) S-SO 152 0 min 35 W/m 10,8 C 14,2 C 8,0 km/h (2 Bft)
22.10.2020 09:30 14,2 C 79 % 1014,0 hPa 0,0 l/m 7,1 km/h (2 Bft) S-SO 152 0 min 25 W/m 10,6 C 13,8 C 14,5 km/h (3 Bft)
22.10.2020 09:25 14,2 C 79 % 1014,0 hPa 0,0 l/m 7,5 km/h (2 Bft) S-SO 165 0 min 18 W/m 10,6 C 13,5 C 14,5 km/h (3 Bft)
22.10.2020 09:20 14,2 C 79 % 1014,0 hPa 0,0 l/m 7,1 km/h (2 Bft) S-SO 148 0 min 14 W/m 10,6 C 13,8 C 14,5 km/h (3 Bft)
22.10.2020 09:15 14,3 C 79 % 1014,0 hPa 0,0 l/m 8,7 km/h (2 Bft) SO 138 0 min 14 W/m 10,7 C 13,0 C 17,7 km/h (3 Bft)
22.10.2020 09:10 14,3 C 79 % 1014,0 hPa 0,0 l/m 6,6 km/h (2 Bft) SO 137 0 min 19 W/m 10,7 C 14,2 C 11,3 km/h (2 Bft)
22.10.2020 09:05 14,3 C 79 % 1013,9 hPa 0,0 l/m 7,8 km/h (2 Bft) O-SO 115 0 min 40 W/m 10,7 C 13,5 C 19,3 km/h (3 Bft)
22.10.2020 09:00 14,3 C 79 % 1013,9 hPa 0,0 l/m 8,1 km/h (2 Bft) S-SO 149 0 min 19 W/m 10,7 C 13,3 C 16,1 km/h (3 Bft)
22.10.2020 08:55 14,2 C 79 % 1013,6 hPa 0,0 l/m 10,3 km/h (2 Bft) O-SO 122 0 min 14 W/m 10,6 C 12,1 C 17,7 km/h (3 Bft)
22.10.2020 08:50 14,2 C 79 % 1013,5 hPa 0,0 l/m 8,7 km/h (2 Bft) S-SO 159 0 min 14 W/m 10,6 C 12,9 C 24,1 km/h (4 Bft)
22.10.2020 08:45 14,2 C 79 % 1013,4 hPa 0,0 l/m 7,7 km/h (2 Bft) SO 146 0 min 18 W/m 10,6 C 13,4 C 17,7 km/h (3 Bft)
22.10.2020 08:40 14,2 C 79 % 1013,4 hPa 0,0 l/m 6,7 km/h (2 Bft) S 174 0 min 23 W/m 10,6 C 14,0 C 17,7 km/h (3 Bft)
22.10.2020 08:35 14,2 C 79 % 1013,4 hPa 0,0 l/m 4,9 km/h (1 Bft) S 184 0 min 21 W/m 10,6 C 14,2 C 11,3 km/h (2 Bft)
22.10.2020 08:30 14,2 C 79 % 1013,2 hPa 0,0 l/m 7,3 km/h (2 Bft) SO 140 0 min 16 W/m 10,6 C 13,7 C 12,9 km/h (3 Bft)
22.10.2020 08:25 14,2 C 79 % 1013,1 hPa 0,0 l/m 7,7 km/h (2 Bft) S-SO 157 0 min 11 W/m 10,6 C 13,4 C 16,1 km/h (3 Bft)
22.10.2020 08:20 14,1 C 79 % 1012,9 hPa 0,0 l/m 6,9 km/h (2 Bft) O-SO 123 0 min 7 W/m 10,5 C 13,8 C 17,7 km/h (3 Bft)
22.10.2020 08:15 14,1 C 79 % 1012,8 hPa 0,0 l/m 10,7 km/h (2 Bft) S-SO 147 0 min 5 W/m 10,5 C 11,8 C 17,7 km/h (3 Bft)
22.10.2020 08:10 14,2 C 79 % 1012,7 hPa 0,0 l/m 9,2 km/h (2 Bft) SO 130 0 min 0 W/m 10,6 C 12,6 C 14,5 km/h (3 Bft)
22.10.2020 08:05 14,2 C 79 % 1012,8 hPa 0,0 l/m 8,6 km/h (2 Bft) SO 143 0 min 0 W/m 10,6 C 12,9 C 16,1 km/h (3 Bft)
22.10.2020 08:00 14,3 C 78 % 1012,8 hPa 0,0 l/m 8,9 km/h (2 Bft) S-SO 164 0 min 0 W/m 10,5 C 12,9 C 17,7 km/h (3 Bft)
22.10.2020 07:55 14,2 C 79 % 1012,9 hPa 0,0 l/m 8,3 km/h (2 Bft) S 178 0 min 0 W/m 10,6 C 13,1 C 17,7 km/h (3 Bft)
22.10.2020 07:50 14,2 C 79 % 1012,8 hPa 0,0 l/m 8,1 km/h (2 Bft) SO 126 0 min 0 W/m 10,6 C 13,2 C 14,5 km/h (3 Bft)
22.10.2020 07:45 14,1 C 79 % 1012,8 hPa 0,0 l/m 8,5 km/h (2 Bft) S-SO 165 0 min 0 W/m 10,5 C 12,9 C 17,7 km/h (3 Bft)
22.10.2020 07:40 14,1 C 79 % 1012,7 hPa 0,0 l/m 7,5 km/h (2 Bft) S-SO 161 0 min 0 W/m 10,5 C 13,4 C 16,1 km/h (3 Bft)
22.10.2020 07:35 14,1 C 79 % 1012,7 hPa 0,0 l/m 8,2 km/h (2 Bft) S-SO 159 0 min 0 W/m 10,5 C 13,0 C 19,3 km/h (3 Bft)
22.10.2020 07:30 14,2 C 78 % 1012,8 hPa 0,0 l/m 8,8 km/h (2 Bft) SO 130 0 min 0 W/m 10,4 C 12,8 C 17,7 km/h (3 Bft)
22.10.2020 07:25 14,1 C 79 % 1012,7 hPa 0,0 l/m 7,1 km/h (2 Bft) S-SO 166 0 min 0 W/m 10,5 C 13,7 C 16,1 km/h (3 Bft)
22.10.2020 07:20 14,1 C 79 % 1012,6 hPa 0,0 l/m 6,7 km/h (2 Bft) S-SO 167 0 min 0 W/m 10,5 C 13,9 C 12,9 km/h (3 Bft)
22.10.2020 07:15 14,1 C 78 % 1012,5 hPa 0,0 l/m 6,6 km/h (2 Bft) S-SO 150 0 min 0 W/m 10,3 C 14,0 C 12,9 km/h (3 Bft)
22.10.2020 07:10 14,1 C 79 % 1012,5 hPa 0,0 l/m 7,5 km/h (2 Bft) S-SO 148 0 min 0 W/m 10,5 C 13,4 C 14,5 km/h (3 Bft)
22.10.2020 07:05 14,1 C 78 % 1012,5 hPa 0,0 l/m 9,4 km/h (2 Bft) SO 137 0 min 0 W/m 10,3 C 12,4 C 19,3 km/h (3 Bft)
22.10.2020 07:00 14,0 C 79 % 1012,6 hPa 0,0 l/m 12,0 km/h (2 Bft) SO 132 0 min 0 W/m 10,4 C 11,1 C 22,5 km/h (4 Bft)
22.10.2020 06:55 13,8 C 79 % 1012,6 hPa 0,0 l/m 9,8 km/h (2 Bft) S-SO 165 0 min 0 W/m 10,2 C 11,9 C 25,7 km/h (4 Bft)
22.10.2020 06:50 13,7 C 80 % 1012,6 hPa 0,0 l/m 8,0 km/h (2 Bft) S-SO 164 0 min 0 W/m 10,3 C 12,7 C 19,3 km/h (3 Bft)
22.10.2020 06:45 13,6 C 80 % 1012,7 hPa 0,0 l/m 10,1 km/h (2 Bft) S-SO 160 0 min 0 W/m 10,2 C 11,5 C 17,7 km/h (3 Bft)
22.10.2020 06:40 13,5 C 80 % 1012,7 hPa 0,0 l/m 9,6 km/h (2 Bft) SO 146 0 min 0 W/m 10,1 C 11,7 C 20,9 km/h (4 Bft)
22.10.2020 06:35 13,4 C 80 % 1012,6 hPa 0,0 l/m 9,5 km/h (2 Bft) S-SO 164 0 min 0 W/m 10,0 C 11,6 C 19,3 km/h (3 Bft)
22.10.2020 06:30 13,5 C 79 % 1012,6 hPa 0,0 l/m 6,1 km/h (2 Bft) SO 125 0 min 0 W/m 9,9 C 13,5 C 12,9 km/h (3 Bft)
22.10.2020 06:25 13,6 C 79 % 1012,6 hPa 0,0 l/m 6,5 km/h (2 Bft) SO 135 0 min 0 W/m 10,0 C 13,6 C 12,9 km/h (3 Bft)
22.10.2020 06:20 13,6 C 79 % 1012,5 hPa 0,0 l/m 8,5 km/h (2 Bft) S-SO 164 0 min 0 W/m 10,0 C 12,4 C 14,5 km/h (3 Bft)
22.10.2020 06:15 13,4 C 80 % 1012,4 hPa 0,0 l/m 6,5 km/h (2 Bft) S-SO 156 0 min 0 W/m 10,0 C 13,4 C 11,3 km/h (2 Bft)
22.10.2020 06:10 13,4 C 79 % 1012,4 hPa 0,0 l/m 7,2 km/h (2 Bft) S-SO 153 0 min 0 W/m 9,8 C 12,9 C 14,5 km/h (3 Bft)
22.10.2020 06:05 13,4 C 79 % 1012,4 hPa 0,0 l/m 9,4 km/h (2 Bft) S-SO 163 0 min 0 W/m 9,8 C 11,7 C 17,7 km/h (3 Bft)
22.10.2020 05:55 13,5 C 79 % 1012,4 hPa 0,0 l/m 6,4 km/h (2 Bft) S-SO 157 0 min 0 W/m 9,9 C 13,5 C 11,3 km/h (2 Bft)
22.10.2020 05:50 13,6 C 78 % 1012,3 hPa 0,0 l/m 3,2 km/h (1 Bft) O-SO 112 0 min 0 W/m 9,8 C 13,6 C 17,7 km/h (3 Bft)
22.10.2020 05:45 13,7 C 78 % 1012,3 hPa 0,0 l/m 4,8 km/h (1 Bft) S-SO 157 0 min 0 W/m 9,9 C 13,7 C 11,3 km/h (2 Bft)
22.10.2020 05:40 13,8 C 78 % 1012,3 hPa 0,0 l/m 1,6 km/h (1 Bft) SO 135 0 min 0 W/m 10,0 C 13,8 C 12,9 km/h (3 Bft)
22.10.2020 05:35 13,8 C 77 % 1012,4 hPa 0,0 l/m 3,2 km/h (1 Bft) SO 135 0 min 0 W/m 9,8 C 13,8 C 12,9 km/h (3 Bft)
22.10.2020 05:30 13,9 C 77 % 1012,4 hPa 0,0 l/m 3,2 km/h (1 Bft) S 180 0 min 0 W/m 9,9 C 13,9 C 11,3 km/h (2 Bft)
22.10.2020 05:25 13,9 C 77 % 1012,4 hPa 0,0 l/m 6,4 km/h (2 Bft) S 180 0 min 0 W/m 9,9 C 13,9 C 20,9 km/h (4 Bft)
22.10.2020 05:20 13,9 C 77 % 1012,4 hPa 0,0 l/m 4,8 km/h (1 Bft) S 180 0 min 0 W/m 9,9 C 13,9 C 12,9 km/h (3 Bft)
22.10.2020 05:15 13,9 C 77 % 1012,4 hPa 0,0 l/m 6,4 km/h (2 Bft) S-SW 202 0 min 0 W/m 9,9 C 13,9 C 12,9 km/h (3 Bft)
22.10.2020 05:10 13,8 C 77 % 1012,4 hPa 0,0 l/m 3,2 km/h (1 Bft) S 180 0 min 0 W/m 9,8 C 13,8 C 11,3 km/h (2 Bft)
22.10.2020 05:05 13,8 C 77 % 1012,5 hPa 0,0 l/m 1,6 km/h (1 Bft) S 180 0 min 0 W/m 9,8 C 13,8 C 9,7 km/h (2 Bft)
22.10.2020 05:00 13,8 C 77 % 1012,4 hPa 0,0 l/m 3,2 km/h (1 Bft) S-SO 157 0 min 0 W/m 9,8 C 13,8 C 14,5 km/h (3 Bft)
22.10.2020 04:55 13,8 C 78 % 1012,4 hPa 0,0 l/m 3,2 km/h (1 Bft) S-SO 157 0 min 0 W/m 10,0 C 13,8 C 11,3 km/h (2 Bft)
22.10.2020 04:50 13,8 C 77 % 1012,2 hPa 0,0 l/m 3,2 km/h (1 Bft) S-SO 157 0 min 0 W/m 9,8 C 13,8 C 9,7 km/h (2 Bft)
22.10.2020 04:45 13,7 C 78 % 1012,2 hPa 0,0 l/m 4,8 km/h (1 Bft) S-SO 157 0 min 0 W/m 9,9 C 13,7 C 9,7 km/h (2 Bft)
22.10.2020 04:40 13,7 C 78 % 1012,3 hPa 0,0 l/m 4,8 km/h (1 Bft) S-SO 157 0 min 0 W/m 9,9 C 13,7 C 11,3 km/h (2 Bft)
22.10.2020 04:35 13,7 C 78 % 1012,2 hPa 0,0 l/m 3,2 km/h (1 Bft) S-SO 157 0 min 0 W/m 9,9 C 13,7 C 11,3 km/h (2 Bft)
22.10.2020 04:30 13,7 C 78 % 1012,1 hPa 0,0 l/m 4,8 km/h (1 Bft) S-SO 157 0 min 0 W/m 9,9 C 13,7 C 14,5 km/h (3 Bft)
22.10.2020 04:25 13,6 C 78 % 1012,0 hPa 0,0 l/m 4,8 km/h (1 Bft) S-SO 157 0 min 0 W/m 9,8 C 13,6 C 16,1 km/h (3 Bft)
22.10.2020 04:20 13,6 C 78 % 1012,0 hPa 0,0 l/m 6,4 km/h (2 Bft) S 180 0 min 0 W/m 9,8 C 13,6 C 17,7 km/h (3 Bft)
22.10.2020 04:15 13,5 C 78 % 1012,0 hPa 0,0 l/m 9,7 km/h (2 Bft) S-SO 157 0 min 0 W/m 9,7 C 11,6 C 17,7 km/h (3 Bft)
22.10.2020 04:10 13,5 C 78 % 1012,1 hPa 0,0 l/m 6,4 km/h (2 Bft) SO 135 0 min 0 W/m 9,7 C 13,5 C 12,9 km/h (3 Bft)
22.10.2020 04:05 13,6 C 78 % 1012,0 hPa 0,0 l/m 4,8 km/h (1 Bft) SO 135 0 min 0 W/m 9,8 C 13,6 C 11,3 km/h (2 Bft)
22.10.2020 04:00 13,5 C 78 % 1012,0 hPa 0,0 l/m 4,8 km/h (1 Bft) S-SO 157 0 min 0 W/m 9,7 C 13,5 C 11,3 km/h (2 Bft)
22.10.2020 03:55 13,4 C 78 % 1012,1 hPa 0,0 l/m 8,0 km/h (2 Bft) S 180 0 min 0 W/m 9,6 C 12,4 C 19,3 km/h (3 Bft)
22.10.2020 03:50 13,3 C 79 % 1012,0 hPa 0,0 l/m 8,0 km/h (2 Bft) S-SO 157 0 min 0 W/m 9,7 C 12,3 C 16,1 km/h (3 Bft)
22.10.2020 03:45 13,3 C 78 % 1011,8 hPa 0,0 l/m 8,0 km/h (2 Bft) S-SO 157 0 min 0 W/m 9,5 C 12,3 C 17,7 km/h (3 Bft)
22.10.2020 03:40 13,4 C 78 % 1012,0 hPa 0,0 l/m 8,0 km/h (2 Bft) S-SO 157 0 min 0 W/m 9,6 C 12,4 C 14,5 km/h (3 Bft)
22.10.2020 03:35 13,4 C 78 % 1012,1 hPa 0,0 l/m 8,0 km/h (2 Bft) S 180 0 min 0 W/m 9,6 C 12,4 C 17,7 km/h (3 Bft)
22.10.2020 03:30 13,4 C 78 % 1012,2 hPa 0,0 l/m 8,0 km/h (2 Bft) S-SO 157 0 min 0 W/m 9,6 C 12,4 C 20,9 km/h (4 Bft)
22.10.2020 03:25 13,4 C 78 % 1012,1 hPa 0,0 l/m 6,4 km/h (2 Bft) S-SO 157 0 min 0 W/m 9,6 C 13,4 C 16,1 km/h (3 Bft)
22.10.2020 03:20 13,5 C 77 % 1011,9 hPa 0,0 l/m 8,0 km/h (2 Bft) S-SO 157 0 min 0 W/m 9,5 C 12,5 C 16,1 km/h (3 Bft)
22.10.2020 03:15 13,6 C 77 % 1011,9 hPa 0,0 l/m 6,4 km/h (2 Bft) S 180 0 min 0 W/m 9,6 C 13,6 C 14,5 km/h (3 Bft)
22.10.2020 03:10 13,6 C 77 % 1011,9 hPa 0,0 l/m 9,7 km/h (2 Bft) S-SO 157 0 min 0 W/m 9,6 C 11,7 C 17,7 km/h (3 Bft)
22.10.2020 03:05 13,6 C 77 % 1012,0 hPa 0,0 l/m 6,4 km/h (2 Bft) S 180 0 min 0 W/m 9,6 C 13,6 C 14,5 km/h (3 Bft)
22.10.2020 03:00 13,6 C 77 % 1011,8 hPa 0,0 l/m 8,0 km/h (2 Bft) S-SO 157 0 min 0 W/m 9,6 C 12,6 C 17,7 km/h (3 Bft)
22.10.2020 02:55 13,6 C 77 % 1011,9 hPa 0,0 l/m 6,4 km/h (2 Bft) S-SO 157 0 min 0 W/m 9,6 C 13,6 C 14,5 km/h (3 Bft)
22.10.2020 02:50 13,7 C 77 % 1011,9 hPa 0,0 l/m 6,4 km/h (2 Bft) S-SO 157 0 min 0 W/m 9,7 C 13,7 C 14,5 km/h (3 Bft)
22.10.2020 02:45 13,7 C 76 % 1011,8 hPa 0,0 l/m 6,4 km/h (2 Bft) S-SO 157 0 min 0 W/m 9,5 C 13,7 C 16,1 km/h (3 Bft)
22.10.2020 02:40 13,7 C 76 % 1011,8 hPa 0,0 l/m 4,8 km/h (1 Bft) S 180 0 min 0 W/m 9,5 C 13,7 C 12,9 km/h (3 Bft)
22.10.2020 02:35 13,8 C 76 % 1011,8 hPa 0,0 l/m 3,2 km/h (1 Bft) S-SO 157 0 min 0 W/m 9,6 C 13,8 C 8,0 km/h (2 Bft)
22.10.2020 02:30 13,8 C 76 % 1011,6 hPa 0,0 l/m 3,2 km/h (1 Bft) S-SO 157 0 min 0 W/m 9,6 C 13,8 C 8,0 km/h (2 Bft)
22.10.2020 02:25 13,9 C 75 % 1011,7 hPa 0,0 l/m 6,4 km/h (2 Bft) S-SO 157 0 min 0 W/m 9,5 C 13,9 C 14,5 km/h (3 Bft)
22.10.2020 02:20 13,9 C 75 % 1011,8 hPa 0,0 l/m 4,8 km/h (1 Bft) S 180 0 min 0 W/m 9,5 C 13,9 C 17,7 km/h (3 Bft)
22.10.2020 02:15 13,9 C 75 % 1011,7 hPa 0,0 l/m 3,2 km/h (1 Bft) S-SO 157 0 min 0 W/m 9,5 C 13,9 C 11,3 km/h (2 Bft)
22.10.2020 02:10 14,0 C 74 % 1011,6 hPa 0,0 l/m 3,2 km/h (1 Bft) S-SO 157 0 min 0 W/m 9,4 C 14,0 C 14,5 km/h (3 Bft)
22.10.2020 02:05 14,1 C 74 % 1011,6 hPa 0,0 l/m 3,2 km/h (1 Bft) S 180 0 min 0 W/m 9,5 C 14,1 C 12,9 km/h (3 Bft)
22.10.2020 02:00 14,2 C 74 % 1011,7 hPa 0,0 l/m 6,4 km/h (2 Bft) S 180 0 min 0 W/m 9,6 C 14,2 C 14,5 km/h (3 Bft)
22.10.2020 01:55 14,3 C 73 % 1011,7 hPa 0,0 l/m 4,8 km/h (1 Bft) S-SO 157 0 min 0 W/m 9,5 C 14,3 C 12,9 km/h (3 Bft)
22.10.2020 01:50 14,3 C 73 % 1011,6 hPa 0,0 l/m 8,0 km/h (2 Bft) S 180 0 min 0 W/m 9,5 C 13,4 C 16,1 km/h (3 Bft)
22.10.2020 01:45 14,3 C 73 % 1011,6 hPa 0,0 l/m 6,4 km/h (2 Bft) S-SO 157 0 min 0 W/m 9,5 C 14,3 C 12,9 km/h (3 Bft)
22.10.2020 01:40 14,4 C 73 % 1011,6 hPa 0,0 l/m 3,2 km/h (1 Bft) SW 225 0 min 0 W/m 9,6 C 14,4 C 14,5 km/h (3 Bft)
22.10.2020 01:35 14,5 C 72 % 1011,6 hPa 0,0 l/m 8,0 km/h (2 Bft) S-SO 157 0 min 0 W/m 9,5 C 13,6 C 12,9 km/h (3 Bft)
22.10.2020 01:30 14,6 C 72 % 1011,6 hPa 0,0 l/m 4,8 km/h (1 Bft) S 180 0 min 0 W/m 9,6 C 14,6 C 12,9 km/h (3 Bft)
22.10.2020 01:25 14,6 C 72 % 1011,6 hPa 0,0 l/m 6,4 km/h (2 Bft) S-SO 157 0 min 0 W/m 9,6 C 14,6 C 12,9 km/h (3 Bft)
22.10.2020 01:20 14,7 C 72 % 1011,5 hPa 0,0 l/m 6,4 km/h (2 Bft) S-SO 157 0 min 0 W/m 9,7 C 14,7 C 12,9 km/h (3 Bft)
22.10.2020 01:15 14,7 C 72 % 1011,4 hPa 0,0 l/m 8,0 km/h (2 Bft) S-SO 157 0 min 0 W/m 9,7 C 13,8 C 16,1 km/h (3 Bft)
22.10.2020 01:10 14,7 C 72 % 1011,3 hPa 0,0 l/m 6,4 km/h (2 Bft) SO 135 0 min 0 W/m 9,7 C 14,7 C 14,5 km/h (3 Bft)
22.10.2020 01:05 14,6 C 72 % 1011,1 hPa 0,0 l/m 9,7 km/h (2 Bft) S-SO 157 0 min 0 W/m 9,6 C 12,8 C 17,7 km/h (3 Bft)
22.10.2020 01:00 14,6 C 72 % 1011,0 hPa 0,0 l/m 8,0 km/h (2 Bft) SO 135 0 min 0 W/m 9,6 C 13,7 C 17,7 km/h (3 Bft)
22.10.2020 00:55 14,7 C 72 % 1011,0 hPa 0,0 l/m 6,4 km/h (2 Bft) S-SO 157 0 min 0 W/m 9,7 C 14,7 C 16,1 km/h (3 Bft)
22.10.2020 00:50 14,7 C 71 % 1011,1 hPa 0,0 l/m 6,4 km/h (2 Bft) S 180 0 min 0 W/m 9,5 C 14,7 C 12,9 km/h (3 Bft)
22.10.2020 00:45 14,7 C 71 % 1011,1 hPa 0,0 l/m 6,4 km/h (2 Bft) S-SO 157 0 min 0 W/m 9,5 C 14,7 C 12,9 km/h (3 Bft)
22.10.2020 00:40 14,7 C 71 % 1011,1 hPa 0,0 l/m 9,7 km/h (2 Bft) S-SO 157 0 min 0 W/m 9,5 C 12,9 C 17,7 km/h (3 Bft)
22.10.2020 00:35 14,7 C 71 % 1011,1 hPa 0,0 l/m 8,0 km/h (2 Bft) S-SO 157 0 min 0 W/m 9,5 C 13,8 C 14,5 km/h (3 Bft)
22.10.2020 00:30 14,7 C 71 % 1011,1 hPa 0,0 l/m 6,4 km/h (2 Bft) S-SO 157 0 min 0 W/m 9,5 C 14,7 C 14,5 km/h (3 Bft)
22.10.2020 00:25 14,7 C 71 % 1011,0 hPa 0,0 l/m 6,4 km/h (2 Bft) S-SO 157 0 min 0 W/m 9,5 C 14,7 C 16,1 km/h (3 Bft)
22.10.2020 00:20 14,7 C 71 % 1011,0 hPa 0,0 l/m 6,4 km/h (2 Bft) S-SW 202 0 min 0 W/m 9,5 C 14,7 C 14,5 km/h (3 Bft)
22.10.2020 00:15 14,7 C 71 % 1011,0 hPa 0,0 l/m 6,4 km/h (2 Bft) S-SO 157 0 min 0 W/m 9,5 C 14,7 C 14,5 km/h (3 Bft)
22.10.2020 00:10 14,7 C 71 % 1010,9 hPa 0,0 l/m 8,0 km/h (2 Bft) S-SO 157 0 min 0 W/m 9,5 C 13,8 C 16,1 km/h (3 Bft)
22.10.2020 00:05 14,7 C 70 % 1010,8 hPa 0,0 l/m 6,4 km/h (2 Bft) S-SO 157 0 min 0 W/m 9,3 C 14,7 C 12,9 km/h (3 Bft)
22.10.2020 00:00 14,7 C 70 % 1010,8 hPa 0,0 l/m 6,4 km/h (2 Bft) S 180 0 min 0 W/m 9,3 C 14,7 C 16,1 km/h (3 Bft)
_ Min-Zeit 03:45 16:35 00:00 - 18:05 - - - - 00:00 07:00 18:05
Minimum _ 13,3 C 61 % 1010,8 hPa - 0,0 km/h (0 Bft) - - - - 9,3 C 11,1 C 0,0 km/h (0 Bft)
_ Max-Zeit 15:50 11:10 11:45 10:45 07:00 - - 11:05 11:50 22:50 15:45 19:50
Maximum _ 20,7 C 86 % 1014,8 hPa 0,2 l/m 12,0 km/h
SO (2 Bft)
- - 5 min 524 W/m 13,7 C 20,6 C 27,4 km/h
S-SO (5 Bft)
Durchschnitt _ 16,3 C 74 % 1013,0 hPa #0,4 l/m 5,9 km/h (2 Bft) S-SO - #4:40 h 175 W/m 11,6 C 15,9 C 14,5 km/h (3 Bft)